DW2270 Weather Reports


Display with metric or nautical units.
time (UTC)temp
F
wind
direction
speed
MPH
gust
MPH
rain 1hr
in
rain 24hr
in
rain mn
in
humidity
%
barometer
mb
20260506001638 82 113 0.0 3.0 0.00 0.00 0.00 56 1005.9
20260506000604 82 121 0.0 12.0 0.00 0.00 0.00 57 1006.0
20260505234444 83 74 0.0 6.0 0.00 0.00 0.00 57 1005.9
20260505233507 83 93 0.0 8.0 0.00 0.00 0.00 58 1005.8
20260505232459 83 86 1.0 8.0 0.00 0.00 0.00 58 1005.7
20260505231505 83 250 1.0 8.0 0.00 0.00 0.00 59 1005.7
20260505230522 84 90 1.0 8.0 0.00 0.00 0.00 60 1005.8
20260505225541 84 91 0.0 4.0 0.00 0.00 0.00 58 1005.8
20260505221138 85 88 2.0 8.0 0.00 0.00 0.00 59 1005.7
20260505220200 85 61 0.0 6.0 0.00 0.00 0.00 57 1005.7
20260505215222 85 244 1.0 7.0 0.00 0.00 0.00 59 1005.9
20260505213118 85 100 1.0 8.0 0.00 0.00 0.00 60 1006.3
20260505205829 85 91 1.0 8.0 0.00 0.00 0.00 62 1006.7
20260505204759 85 55 2.0 8.0 0.00 0.00 0.00 63 1006.7
20260505203807 86 134 1.0 8.0 0.00 0.00 0.00 62 1007.0
20260505202756 85 151 1.0 8.0 0.00 0.00 0.00 60 1007.0
20260505200658 85 71 1.0 11.0 0.00 0.00 0.00 62 1007.2
20260505194535 85 147 1.0 8.0 0.00 0.00 0.00 59 1007.5
20260505192328 83 78 1.0 7.0 0.00 0.00 0.00 54 1007.7
20260505191314 83 92 1.0 7.0 0.00 0.00 0.00 53 1007.8
20260505190339 83 73 0.0 7.0 0.00 0.00 0.00 49 1007.9
20260505185320 82 98 1.0 7.0 0.00 0.00 0.00 51 1008.1
20260505184343 82 165 0.0 3.0 0.00 0.00 0.00 41 1008.0
20260505182244 81 160 0.0 4.0 0.00 0.00 0.00 36 1008.3
20260505181239 81 80 0.0 5.0 0.00 0.00 0.00 35 1008.3
20260505180238 80 309 0.0 9.0 0.00 0.00 0.00 32 1008.4
20260505175236 80 248 1.0 9.0 0.00 0.00 0.00 30 1008.4
20260505174224 80 92 0.0 4.0 0.00 0.00 0.00 29 1008.5
20260505173215 80 92 1.0 4.0 0.00 0.00 0.00 29 1008.7
20260505172146 80 117 1.0 4.0 0.00 0.00 0.00 31 1008.8
20260505171156 79 236 1.0 3.0 0.00 0.00 0.00 27 1008.8
20260505170152 79 227 0.0 6.0 0.00 0.00 0.00 23 1008.8
20260505165205 79 84 0.0 3.0 0.00 0.00 0.00 24 1008.7
20260505163044 78 86 0.0 6.0 0.00 0.00 0.00 17 1008.9
20260505160943 77 253 0.0 4.0 0.00 0.00 0.00 18 1008.8
20260505151657 77 163 1.0 8.0 0.00 0.00 0.00 22 1008.6
20260505150716 77 127 1.0 6.0 0.00 0.00 0.00 20 1008.5
20260505140549 75 92 1.0 8.0 0.00 0.00 0.00 6 1008.3
20260505124446 73 153 0.0 7.0 0.00 0.00 0.00 1 1007.9
20260505123448 73 105 1.0 7.0 0.00 0.00 0.00 1 1007.6
20260505122437 73 67 0.0 6.0 0.00 0.00 0.00 1 1008.0
20260505121421 73 82 0.0 3.0 0.00 0.00 0.00 1 1008.1
20260505120409 72 87 0.0 0.0 0.00 0.00 0.00 1 1008.0
20260505115418 72 84 0.0 3.0 0.00 0.00 0.00 2 1007.9
20260505114428 72 119 1.0 6.0 0.00 0.00 0.00 3 1007.4
20260505113424 72 117 0.0 6.0 0.00 0.00 0.00 3 1007.8
20260505112351 72 95 0.0 2.0 0.00 0.00 0.00 4 1007.8
20260505111329 72 306 0.0 4.0 0.00 0.00 0.00 4 1007.8
20260505110305 72 94 0.0 6.0 0.00 0.00 0.00 5 1007.7
20260505100057 72 163 0.0 2.0 0.00 0.00 0.00 8 1007.9
20260505095056 72 109 0.0 3.0 0.00 0.00 0.00 9 1008.0
20260505094040 72 104 0.0 2.0 0.00 0.00 0.00 10 1007.9
20260505093103 72 105 0.0 1.0 0.00 0.00 0.00 11 1007.9
20260505092048 72 82 0.0 3.0 0.00 0.00 0.00 12 1008.1
20260505091107 72 97 0.0 1.0 0.00 0.00 0.00 13 1008.2
20260505090124 72 97 0.0 1.0 0.00 0.00 0.00 15 1008.3
20260505085121 72 88 0.0 5.0 0.00 0.00 0.00 15 1008.1
20260505084125 72 103 0.0 6.0 0.00 0.00 0.00 16 1008.2
20260505083141 72 107 0.0 5.0 0.00 0.00 0.00 17 1008.2
20260505082142 72 315 0.0 3.0 0.00 0.00 0.00 18 1008.4
20260505081116 72 64 0.0 1.0 0.00 0.00 0.00 19 1008.4
20260505080048 72 64 0.0 2.0 0.00 0.00 0.00 21 1008.6
20260505075029 72 74 0.0 6.0 0.00 0.00 0.00 22 1008.6
20260505074036 72 101 0.0 5.0 0.00 0.00 0.00 23 1008.6
20260505073020 72 78 0.0 3.0 0.00 0.00 0.00 24 1008.8
20260505071948 72 258 0.0 1.0 0.00 0.00 0.00 26 1008.9
20260505070924 72 257 0.0 1.0 0.00 0.00 0.00 27 1009.0
20260505065938 72 109 0.0 1.0 0.00 0.00 0.00 28 1009.0
20260505064947 72 96 0.0 5.0 0.00 0.00 0.00 29 1009.1
20260505063933 72 81 0.0 10.0 0.00 0.00 0.00 31 1009.2
20260505062902 72 96 0.0 10.0 0.00 0.00 0.00 33 1009.3
20260505061843 72 111 0.0 6.0 0.00 0.00 0.00 35 1009.4
20260505055720 72 79 0.0 4.0 0.00 0.00 0.00 40 1009.5
20260505054646 72 217 0.0 2.0 0.00 0.00 0.00 42 1009.3
20260505053645 72 125 0.0 3.0 0.00 0.00 0.00 43 1009.6
20260505052619 72 101 0.0 6.0 0.00 0.00 0.00 45 1009.7
20260505051604 72 92 0.0 6.0 0.00 0.00 0.00 48 1009.9
20260505040120 74 154 1.0 8.0 0.00 0.00 0.00 56 1009.9
20260505035140 74 43 1.0 8.0 0.00 0.00 0.00 57 1010.1
20260505034154 74 11 0.0 9.0 0.00 0.00 0.00 57 1010.0
20260505030829 75 105 1.0 6.0 0.00 0.00 0.00 60 1010.2
20260505024651 75 90 1.0 8.0 0.00 0.00 0.00 62 1009.9
20260505023711 75 117 1.0 8.0 0.00 0.00 0.00 63 1009.8
20260505022643 75 103 1.0 8.0 0.00 0.00 0.00 63 1009.9
20260505021702 75 97 0.0 5.0 0.00 0.00 0.00 63 1009.9
20260505015519 75 123 0.0 7.0 0.00 0.00 0.00 63 1009.6
20260505014527 76 105 0.0 6.0 0.00 0.00 0.00 64 1009.5
20260505013510 76 227 0.0 6.0 0.00 0.00 0.00 64 1009.4
20260505012528 76 151 0.0 5.0 0.00 0.00 0.00 65 1009.3
20260505011528 77 101 0.0 3.0 0.00 0.00 0.00 65 1009.3
20260505010533 77 84 0.0 1.0 0.00 0.00 0.00 64 1009.4
20260505005534 77 84 0.0 5.0 0.00 0.00 0.00 64 1009.4
20260505004547 78 98 1.0 3.0 0.00 0.00 0.00 64 1009.4
20260505003522 78 100 0.0 3.0 0.00 0.00 0.00 64 1009.4
20260505002500 78 112 1.0 10.0 0.00 0.00 0.00 64 1009.4